RYR363D LEMI-EGHH

Flight info

Callsign RYR363D
Flight time N/A
Altitude 38000
Route ALT N851 MITOS N608 COMPI Y90 USKAR DCT MOPAS DCT GIROM DCT AGN DCT SECHE DCT UVELI DCT CNA DCT MANAK UY110 ORIST Y110 THRED
Aircraft B738/M-SDE3FGILRWY/SB1

Departure

Time 2026-04-15 13:13
Airport Region of Murcia International Airport (LEMI)

Arrival

Time N/A
Airport Bournemouth Airport (EGHH)
Time Latitude Longitude Altitude Speed Heading
2026-04-15 12:53 37.80436 -1.13016 646 ft 0 kts 315°
2026-04-15 13:05 37.80421 -1.12998 646 ft 4 kts 315°
2026-04-15 13:06 37.80403 -1.12976 650 ft 3 kts 315°
2026-04-15 13:06 37.80390 -1.12952 666 ft 4 kts 270°
2026-04-15 13:06 37.80399 -1.12925 639 ft 4 kts 226°
2026-04-15 13:06 37.80406 -1.12915 648 ft 1 kts 225°
2026-04-15 13:09 37.80401 -1.12922 641 ft 3 kts 225°
2026-04-15 13:09 37.80372 -1.12959 647 ft 10 kts 225°
2026-04-15 13:09 37.80309 -1.13039 646 ft 16 kts 225°
2026-04-15 13:09 37.80222 -1.13149 646 ft 18 kts 214°
2026-04-15 13:10 37.80118 -1.13089 646 ft 18 kts 151°
2026-04-15 13:10 37.80021 -1.13158 647 ft 17 kts 224°
2026-04-15 13:10 37.79939 -1.13263 649 ft 16 kts 225°
2026-04-15 13:10 37.79858 -1.13368 651 ft 18 kts 226°
2026-04-15 13:11 37.79761 -1.13493 650 ft 21 kts 225°
2026-04-15 13:11 37.79662 -1.13620 648 ft 20 kts 226°
2026-04-15 13:11 37.79567 -1.13742 646 ft 19 kts 225°
2026-04-15 13:11 37.79457 -1.13738 646 ft 19 kts 136°
2026-04-15 13:12 37.79425 -1.13616 645 ft 16 kts 47°
2026-04-15 13:12 37.79518 -1.13494 644 ft 32 kts 45°
2026-04-15 13:12 37.79833 -1.13090 646 ft 97 kts 45°
2026-04-15 13:12 37.80433 -1.12317 648 ft 150 kts 45°
2026-04-15 13:13 37.81224 -1.11288 959 ft 168 kts 47°
2026-04-15 13:13 37.82068 -1.10244 1586 ft 172 kts 45°
2026-04-15 13:13 37.82937 -1.09213 2290 ft 171 kts 41°
2026-04-15 13:13 37.83837 -1.08152 2813 ft 188 kts 41°
2026-04-15 13:14 37.84872 -1.06934 3051 ft 216 kts 40°
2026-04-15 13:14 37.86028 -1.05572 3240 ft 239 kts 41°
2026-04-15 13:14 37.87299 -1.04068 3492 ft 260 kts 41°
2026-04-15 13:14 37.88619 -1.02502 4149 ft 266 kts 41°
2026-04-15 13:15 37.89972 -1.00894 5007 ft 267 kts 40°
2026-04-15 13:15 37.91324 -0.99284 5873 ft 266 kts 40°
2026-04-15 13:15 37.92662 -0.97692 6809 ft 262 kts 40°
2026-04-15 13:15 37.93991 -0.96113 7572 ft 264 kts 39°
2026-04-15 13:16 37.95345 -0.94503 8240 ft 270 kts 40°
2026-04-15 13:16 37.96731 -0.92858 8941 ft 275 kts 40°
2026-04-15 13:16 37.98132 -0.91190 9706 ft 277 kts 40°
2026-04-15 13:16 37.99540 -0.89513 10431 ft 280 kts 40°
2026-04-15 13:17 38.00988 -0.87788 10664 ft 301 kts 40°
2026-04-15 13:17 38.02572 -0.85903 10844 ft 323 kts 40°
2026-04-15 13:17 38.04242 -0.83910 11244 ft 335 kts 41°
2026-04-15 13:17 38.05946 -0.81872 11894 ft 338 kts 41°
2026-04-15 13:18 38.07662 -0.79819 12621 ft 340 kts 41°
2026-04-15 13:18 38.09390 -0.77753 13333 ft 343 kts 40°
2026-04-15 13:18 38.11137 -0.75664 14062 ft 347 kts 40°
2026-04-15 13:18 38.12900 -0.73559 14723 ft 349 kts 40°
2026-04-15 13:19 38.14683 -0.71440 15400 ft 352 kts 40°
2026-04-15 13:19 38.16480 -0.69306 16075 ft 356 kts 40°
2026-04-15 13:19 38.18270 -0.67177 16730 ft 359 kts 40°
2026-04-15 13:19 38.20104 -0.64994 17360 ft 363 kts 40°
2026-04-15 13:20 38.21959 -0.62784 17967 ft 368 kts 40°
2026-04-15 13:20 38.23830 -0.60552 18601 ft 371 kts 40°
2026-04-15 13:20 38.25717 -0.58292 19162 ft 374 kts 41°
2026-04-15 13:20 38.27308 -0.55633 19656 ft 387 kts 60°
2026-04-15 13:21 38.28362 -0.52457 20219 ft 392 kts 64°
2026-04-15 13:21 38.29367 -0.49213 20726 ft 396 kts 64°
2026-04-15 13:21 38.30369 -0.45977 21213 ft 400 kts 64°
2026-04-15 13:21 38.31403 -0.42673 21709 ft 404 kts 64°
2026-04-15 13:22 38.32458 -0.39335 22218 ft 408 kts 64°
2026-04-15 13:22 38.33526 -0.35975 22682 ft 411 kts 64°
2026-04-15 13:22 38.34608 -0.32584 23155 ft 415 kts 64°
2026-04-15 13:22 38.35699 -0.29158 23625 ft 419 kts 64°
2026-04-15 13:23 38.36810 -0.25715 24028 ft 422 kts 63°
2026-04-15 13:23 38.37961 -0.22260 24420 ft 425 kts 63°
2026-04-15 13:23 38.39126 -0.18791 24827 ft 427 kts 63°
2026-04-15 13:23 38.40279 -0.15349 25223 ft 430 kts 63°
2026-04-15 13:24 38.41450 -0.11832 25605 ft 432 kts 63°
2026-04-15 13:24 38.42635 -0.08300 25989 ft 434 kts 60°
2026-04-15 13:24 38.44304 -0.05153 26308 ft 426 kts 40°
2026-04-15 13:24 38.46653 -0.02940 26704 ft 418 kts 23°
2026-04-15 13:25 38.49338 -0.01591 27093 ft 413 kts 10°
2026-04-15 13:25 38.52173 -0.01178 27475 ft 410 kts 358°
2026-04-15 13:25 38.55024 -0.01146 27859 ft 411 kts 357°
2026-04-15 13:25 38.57853 -0.01169 28202 ft 413 kts 356°
2026-04-15 13:26 38.60733 -0.01202 28559 ft 415 kts 356°
2026-04-15 13:26 38.63629 -0.01224 28895 ft 418 kts 356°
2026-04-15 13:26 38.66546 -0.01232 29226 ft 420 kts 357°
2026-04-15 13:26 38.69479 -0.01228 29557 ft 423 kts 357°
2026-04-15 13:27 38.72430 -0.01215 29903 ft 425 kts 357°
2026-04-15 13:27 38.75394 -0.01198 30251 ft 427 kts 357°
2026-04-15 13:27 38.78363 -0.01178 30566 ft 427 kts 357°
2026-04-15 13:27 38.81330 -0.01157 30931 ft 426 kts 357°
2026-04-15 13:28 38.84254 -0.01136 31304 ft 425 kts 357°
2026-04-15 13:28 38.87217 -0.01116 31609 ft 426 kts 357°
2026-04-15 13:28 38.90176 -0.01096 31988 ft 425 kts 357°
2026-04-15 13:28 38.93132 -0.01076 32299 ft 425 kts 357°
2026-04-15 13:29 38.96096 -0.01057 32569 ft 426 kts 357°
2026-04-15 13:29 38.99056 -0.01037 32898 ft 425 kts 357°
2026-04-15 13:29 39.02014 -0.01018 33252 ft 424 kts 357°
2026-04-15 13:29 39.04964 -0.00999 33564 ft 424 kts 357°
2026-04-15 13:30 39.07881 -0.00980 33854 ft 425 kts 357°
2026-04-15 13:30 39.10832 -0.00960 34159 ft 424 kts 357°
2026-04-15 13:30 39.13782 -0.00941 34449 ft 423 kts 357°
2026-04-15 13:30 39.16725 -0.00921 34735 ft 423 kts 357°
2026-04-15 13:31 39.19664 -0.00902 35019 ft 421 kts 357°
2026-04-15 13:31 39.22591 -0.00882 35307 ft 420 kts 357°
2026-04-15 13:31 39.25510 -0.00863 35603 ft 419 kts 357°
2026-04-15 13:31 39.28424 -0.00844 35873 ft 418 kts 357°
2026-04-15 13:32 39.31330 -0.00825 36136 ft 417 kts 357°
2026-04-15 13:32 39.34190 -0.00740 36391 ft 418 kts
2026-04-15 13:32 39.37074 -0.00177 36667 ft 422 kts 10°
2026-04-15 13:32 39.39898 0.00848 36992 ft 420 kts 12°
2026-04-15 13:33 39.42692 0.01911 37301 ft 418 kts 12°
2026-04-15 13:33 39.45479 0.02975 37503 ft 418 kts 12°
2026-04-15 13:33 39.48279 0.04035 37673 ft 419 kts 11°
2026-04-15 13:33 39.51074 0.05084 37903 ft 418 kts 11°
2026-04-15 13:34 39.53862 0.06125 38141 ft 417 kts 11°
2026-04-15 13:34 39.56659 0.07164 38143 ft 420 kts 11°
2026-04-15 13:34 39.62241 0.09235 38163 ft 419 kts 11°
2026-04-15 13:35 39.67820 0.11309 38156 ft 416 kts 11°
2026-04-15 13:35 39.73359 0.13371 38168 ft 413 kts 11°
2026-04-15 13:36 39.78866 0.15424 38160 ft 411 kts 11°
2026-04-15 13:36 39.84323 0.17462 38158 ft 411 kts 11°
2026-04-15 13:37 39.89818 0.19517 38167 ft 412 kts 11°
2026-04-15 13:37 39.95335 0.21584 38178 ft 414 kts 11°
2026-04-15 13:38 40.00884 0.23667 38171 ft 416 kts 11°
2026-04-15 13:38 40.06432 0.25748 38173 ft 419 kts 11°
2026-04-15 13:39 40.12047 0.27857 38186 ft 421 kts 11°
2026-04-15 13:39 40.17696 0.29984 38177 ft 423 kts 11°
2026-04-15 13:40 40.23359 0.32121 38182 ft 424 kts 11°
2026-04-15 13:40 40.28993 0.34250 38169 ft 425 kts 11°
2026-04-15 13:41 40.34671 0.36401 38170 ft 424 kts 11°
2026-04-15 13:41 40.40335 0.38556 38175 ft 423 kts 11°
2026-04-15 13:42 40.45985 0.40710 38161 ft 422 kts 11°
2026-04-15 13:42 40.51578 0.42846 38154 ft 421 kts 11°
2026-04-15 13:43 40.57194 0.44993 38156 ft 420 kts 11°
2026-04-15 13:43 40.62795 0.47139 38154 ft 419 kts 11°
2026-04-15 13:44 40.68380 0.49283 38158 ft 418 kts 11°
2026-04-15 13:44 40.73961 0.51428 38145 ft 418 kts 11°
2026-04-15 13:45 40.79503 0.53562 38153 ft 418 kts 11°
2026-04-15 13:47 41.01903 0.62226 38157 ft 423 kts 11°
2026-04-15 13:47 41.07569 0.64428 38147 ft 425 kts 11°
2026-04-15 13:48 41.13242 0.66636 38157 ft 425 kts 11°
2026-04-15 13:48 41.18935 0.68851 38147 ft 427 kts 11°
2026-04-15 13:49 41.24601 0.71058 38142 ft 427 kts 11°